EW6470 Weather Reports


Display with metric or nautical units.
time (UTC)temp
F
wind
direction
speed
MPH
gust
MPH
rain 1hr
in
rain 24hr
in
rain mn
in
humidity
%
barometer
mb
20260508153509 36 0 0.0 1.0 0.00 0.00 0.00 88 1009.6
20260508153032 36 0 0.0 0.0 0.00 0.00 0.00 88 1009.5
20260508152514 36 0 0.0 0.0 0.00 0.00 0.00 88 1009.7
20260508152016 36 0 0.0 0.0 0.00 0.00 0.00 88 1009.7
20260508151527 36 0 0.0 0.0 0.00 0.00 0.00 88 1009.8
20260508151009 36 0 0.0 0.0 0.00 0.00 0.00 88 1009.8
20260508150511 36 0 0.0 0.0 0.00 0.00 0.00 89 1009.8
20260508150034 35 0 0.0 0.0 0.00 0.00 0.00 89 1009.9
20260508145510 35 0 0.0 0.0 0.00 0.00 0.00 89 1010.0
20260508145015 35 0 0.0 0.0 0.00 0.00 0.00 89 1010.0
20260508144529 35 0 0.0 0.0 0.00 0.00 0.00 89 1009.8
20260508144010 35 0 0.0 0.0 0.00 0.00 0.00 88 1009.8
20260508143512 35 0 0.0 0.0 0.00 0.00 0.00 88 1009.9
20260508143039 35 0 0.0 0.0 0.00 0.00 0.00 88 1010.0
20260508142509 35 0 0.0 0.0 0.00 0.00 0.00 87 1009.9
20260508142009 36 0 0.0 0.0 0.00 0.00 0.00 87 1010.1
20260508141537 36 0 0.0 0.0 0.00 0.00 0.00 87 1010.1
20260508141010 36 0 0.0 1.0 0.00 0.00 0.00 86 1010.4
20260508140511 36 0 0.0 1.0 0.00 0.00 0.00 86 1010.3
20260508140028 36 0 0.0 0.0 0.00 0.00 0.00 85 1010.4
20260508135514 36 0 0.0 0.0 0.00 0.00 0.00 85 1010.5
20260508135010 36 0 0.0 0.0 0.00 0.00 0.00 85 1010.4
20260508134533 36 0 0.0 0.0 0.00 0.00 0.00 85 1010.4
20260508134014 36 0 0.0 0.0 0.00 0.00 0.00 85 1010.7
20260508133511 36 0 0.0 0.0 0.00 0.00 0.00 85 1010.7
20260508133028 36 0 0.0 0.0 0.00 0.00 0.00 85 1010.8
20260508132510 36 0 0.0 1.0 0.00 0.00 0.00 85 1010.7
20260508132010 36 0 0.0 1.0 0.00 0.00 0.00 85 1010.8
20260508131527 36 0 0.0 0.0 0.00 0.00 0.00 85 1010.8
20260508131010 36 0 0.0 1.0 0.00 0.00 0.00 85 1010.8
20260508130507 36 0 0.0 1.0 0.00 0.00 0.00 85 1010.8
20260508130030 36 0 0.0 1.0 0.00 0.00 0.00 85 1011.0
20260508125511 36 263 0.0 1.0 0.00 0.00 0.00 85 1010.9
20260508125011 36 258 0.0 1.0 0.00 0.00 0.00 85 1011.0
20260508124530 36 0 0.0 1.0 0.00 0.00 0.00 85 1011.0
20260508124012 37 0 0.0 2.0 0.00 0.00 0.00 85 1011.0
20260508123510 37 0 0.0 2.0 0.00 0.00 0.00 85 1011.1
20260508123028 37 0 0.0 2.0 0.00 0.00 0.00 85 1011.1
20260508122514 37 0 0.0 1.0 0.00 0.00 0.00 86 1011.2
20260508122012 37 350 0.0 1.0 0.00 0.00 0.00 86 1011.3
20260508121551 37 0 0.0 2.0 0.00 0.00 0.00 86 1011.3
20260508121010 37 352 0.0 2.0 0.00 0.00 0.00 86 1011.3
20260508120512 37 282 0.0 2.0 0.00 0.00 0.00 86 1011.4
20260508120031 37 76 0.0 3.0 0.00 0.00 0.00 86 1011.5
20260508115508 37 0 0.0 3.0 0.00 0.01 0.00 86 1011.6
20260508115008 37 0 0.0 3.0 0.00 0.01 0.00 85 1011.6
20260508114531 37 273 0.0 3.0 0.00 0.01 0.00 85 1011.7
20260508114010 37 286 0.0 3.0 0.00 0.01 0.00 85 1011.8
20260508113512 38 268 0.0 3.0 0.00 0.01 0.00 85 1011.8
20260508113028 38 292 1.0 3.0 0.00 0.01 0.00 86 1011.9
20260508112511 37 288 1.0 3.0 0.00 0.01 0.00 86 1011.9
20260508112011 38 275 0.0 1.0 0.00 0.01 0.00 86 1012.1
20260508111528 37 254 1.0 2.0 0.00 0.01 0.00 86 1012.1
20260508111008 37 281 1.0 2.0 0.00 0.01 0.00 87 1012.2
20260508110507 37 250 0.0 1.0 0.00 0.01 0.00 87 1012.2
20260508110038 37 0 0.0 1.0 0.00 0.01 0.00 87 1012.2
20260508105511 37 0 0.0 1.0 0.00 0.01 0.00 87 1012.2
20260508105009 38 0 0.0 1.0 0.00 0.01 0.00 86 1012.4
20260508104527 38 0 0.0 1.0 0.00 0.01 0.00 86 1012.4
20260508104010 38 277 0.0 1.0 0.00 0.01 0.00 86 1012.4
20260508103509 38 0 0.0 4.0 0.00 0.01 0.00 86 1012.5
20260508103032 38 276 0.0 4.0 0.00 0.01 0.00 86 1012.4
20260508102508 38 276 1.0 4.0 0.00 0.01 0.00 86 1012.5
20260508102011 38 283 1.0 1.0 0.00 0.01 0.00 86 1012.6
20260508101529 38 268 0.0 1.0 0.00 0.01 0.00 86 1012.5
20260508101013 38 271 0.0 1.0 0.00 0.01 0.00 86 1012.7
20260508100508 38 272 0.0 1.0 0.00 0.01 0.00 86 1012.6
20260508100032 38 0 0.0 1.0 0.00 0.01 0.00 86 1012.7
20260508095509 38 0 0.0 1.0 0.00 0.03 0.00 86 1012.8
20260508095011 38 0 0.0 1.0 0.00 0.03 0.00 86 1012.7
20260508094530 38 0 0.0 2.0 0.00 0.03 0.00 86 1012.7
20260508094011 38 277 0.0 2.0 0.00 0.03 0.00 86 1012.7
20260508093509 38 284 1.0 2.0 0.00 0.03 0.00 86 1012.8
20260508093030 38 275 0.0 1.0 0.00 0.03 0.00 86 1012.8
20260508092508 38 277 0.0 4.0 0.00 0.03 0.00 85 1013.0
20260508092013 38 275 0.0 4.0 0.00 0.03 0.00 85 1012.9
20260508091529 38 269 0.0 1.0 0.00 0.03 0.00 85 1013.0
20260508091011 38 304 0.0 2.0 0.00 0.03 0.00 85 1012.9
20260508090512 39 290 0.0 3.0 0.00 0.03 0.00 85 1012.9
20260508090028 39 279 0.0 3.0 0.00 0.03 0.00 85 1013.0
20260508085514 39 284 0.0 3.0 0.00 0.06 0.00 84 1013.1
20260508085010 39 290 0.0 2.0 0.00 0.06 0.00 84 1013.2
20260508084529 39 285 0.0 3.0 0.00 0.06 0.00 83 1013.1
20260508084011 39 28 0.0 3.0 0.00 0.06 0.00 82 1013.1
20260508083510 39 292 0.0 3.0 0.00 0.06 0.00 82 1013.2
20260508083111 39 293 0.0 1.0 0.00 0.06 0.00 82 1013.1
20260508082509 39 279 0.0 1.0 0.00 0.06 0.00 82 1013.1
20260508082011 39 271 0.0 1.0 0.00 0.06 0.00 81 1013.2
20260508081529 40 0 0.0 1.0 0.00 0.06 0.00 80 1013.4
20260508081009 40 0 0.0 1.0 0.00 0.06 0.00 79 1013.3
20260508080510 40 0 0.0 1.0 0.00 0.06 0.00 77 1013.3
20260508080028 41 0 0.0 1.0 0.00 0.06 0.00 75 1013.4
20260508075509 41 271 0.0 1.0 0.00 0.10 0.06 75 1013.5
20260508075010 41 0 0.0 1.0 0.00 0.10 0.06 74 1013.4
20260508074534 41 262 0.0 1.0 0.00 0.10 0.06 75 1013.4
20260508074010 40 274 0.0 1.0 0.00 0.10 0.06 76 1013.4
20260508073510 40 0 0.0 0.0 0.00 0.10 0.06 75 1013.4
20260508073032 40 0 0.0 0.0 0.00 0.10 0.06 76 1013.4
20260508072509 40 0 0.0 0.0 0.00 0.10 0.06 75 1013.5
20260508072010 40 0 0.0 0.0 0.00 0.10 0.06 76 1013.5
20260508071532 41 0 0.0 0.0 0.00 0.10 0.06 75 1013.6
20260508071009 41 0 0.0 0.0 0.00 0.10 0.06 76 1013.7
20260508070508 41 0 0.0 0.0 0.00 0.10 0.06 75 1013.6
20260508070028 41 0 0.0 0.0 0.00 0.10 0.06 75 1013.6
20260508065508 41 0 0.0 0.0 0.00 0.10 0.06 74 1013.7
20260508065008 42 0 0.0 0.0 0.00 0.10 0.06 73 1013.5
20260508064544 42 0 0.0 0.0 0.00 0.10 0.06 71 1013.6
20260508064011 42 0 0.0 1.0 0.00 0.10 0.06 72 1013.6
20260508063509 42 0 0.0 1.0 0.00 0.10 0.06 70 1013.6
20260508063033 43 274 0.0 1.0 0.00 0.10 0.06 70 1013.7
20260508062510 43 274 0.0 1.0 0.00 0.10 0.06 69 1013.7
20260508062013 43 0 0.0 1.0 0.00 0.10 0.06 69 1013.7
20260508061531 43 0 0.0 2.0 0.00 0.10 0.06 68 1013.8
20260508061008 43 274 0.0 2.0 0.00 0.10 0.06 66 1013.7
20260508060509 43 282 1.0 2.0 0.00 0.10 0.06 67 1013.8
20260508060028 43 281 0.0 1.0 0.00 0.10 0.06 68 1013.7
20260508055511 43 0 0.0 1.0 0.00 0.13 0.06 68 1013.7
20260508055008 44 276 0.0 4.0 0.00 0.13 0.06 67 1013.8
20260508054529 44 257 1.0 4.0 0.00 0.13 0.06 66 1013.8
20260508054009 44 259 1.0 4.0 0.00 0.13 0.06 66 1013.9
20260508053508 44 232 1.0 4.0 0.00 0.13 0.06 65 1013.7
20260508053028 44 277 0.0 2.0 0.00 0.13 0.06 67 1013.7
20260508052515 44 275 0.0 1.0 0.00 0.13 0.06 69 1013.8
20260508052009 44 0 0.0 1.0 0.00 0.13 0.06 70 1013.8
20260508051530 44 0 0.0 1.0 0.00 0.13 0.06 69 1013.9
20260508051008 44 0 0.0 0.0 0.00 0.13 0.06 68 1013.9
20260508050511 44 0 0.0 1.0 0.00 0.13 0.06 68 1013.9
20260508050030 45 0 0.0 1.0 0.00 0.13 0.06 68 1013.9
20260508045509 45 0 0.0 1.0 0.00 0.15 0.06 66 1014.1
20260508045009 45 0 0.0 0.0 0.00 0.15 0.06 66 1014.0
20260508044530 45 0 0.0 0.0 0.00 0.15 0.06 64 1013.9
20260508044009 45 0 0.0 0.0 0.00 0.15 0.06 64 1014.0
20260508043509 45 0 0.0 0.0 0.00 0.15 0.06 62 1014.1
20260508043033 46 0 0.0 0.0 0.00 0.15 0.06 62 1014.2
20260508042513 46 0 0.0 0.0 0.00 0.15 0.06 64 1013.9
20260508042010 46 0 0.0 1.0 0.00 0.15 0.06 62 1014.1
20260508041529 46 0 0.0 1.0 0.00 0.15 0.06 65 1014.1
20260508041011 46 0 0.0 1.0 0.00 0.15 0.06 65 1014.1
20260508040509 46 0 0.0 0.0 0.00 0.15 0.06 67 1014.1
20260508040031 46 0 0.0 0.0 0.00 0.15 0.06 65 1014.2
20260508035516 46 0 0.0 0.0 0.00 0.17 0.06 67 1014.3
20260508035012 46 0 0.0 1.0 0.00 0.17 0.06 67 1014.4
20260508034530 46 0 0.0 1.0 0.00 0.17 0.06 65 1014.3
20260508034010 46 0 0.0 1.0 0.00 0.17 0.06 66 1014.5
20260508033510 46 0 0.0 3.0 0.00 0.17 0.06 60 1014.5
20260508033030 46 0 0.0 3.0 0.00 0.17 0.06 61 1014.7
20260508032508 46 207 0.0 2.0 0.00 0.17 0.06 63 1014.7
20260508032009 46 0 0.0 2.0 0.00 0.17 0.06 63 1014.6
20260508031530 46 0 0.0 1.0 0.00 0.17 0.06 65 1014.7
20260508031015 46 0 0.0 1.0 0.00 0.17 0.06 63 1014.8
20260508030510 46 0 0.0 2.0 0.00 0.17 0.06 63 1014.9
20260508030029 46 0 0.0 2.0 0.00 0.17 0.06 62 1015.0
20260508025510 47 122 0.0 2.0 0.00 0.17 0.06 61 1015.0
20260508025010 47 0 0.0 1.0 0.00 0.17 0.06 61 1014.9
20260508024531 47 0 0.0 1.0 0.00 0.17 0.06 60 1014.9
20260508024011 47 0 0.0 1.0 0.00 0.17 0.06 60 1015.0
20260508023510 47 93 0.0 1.0 0.00 0.17 0.06 59 1015.0
20260508023035 47 0 0.0 3.0 0.00 0.17 0.06 60 1015.0
20260508022510 47 95 1.0 3.0 0.00 0.17 0.06 59 1014.9
20260508022013 47 150 1.0 2.0 0.00 0.17 0.06 60 1015.1
20260508021531 47 145 1.0 2.0 0.00 0.17 0.06 58 1015.1
20260508021009 47 179 0.0 1.0 0.00 0.17 0.06 60 1015.2
20260508020509 47 0 0.0 2.0 0.00 0.17 0.06 60 1015.2
20260508020028 47 0 0.0 2.0 0.00 0.17 0.06 62 1015.2
20260508015510 47 265 1.0 2.0 0.00 0.18 0.06 61 1015.3
20260508015012 47 0 0.0 2.0 0.00 0.18 0.06 61 1015.3
20260508014533 46 137 0.0 2.0 0.00 0.18 0.06 61 1015.3
20260508014010 46 150 0.0 2.0 0.00 0.18 0.06 61 1015.4
20260508013509 47 0 0.0 1.0 0.00 0.18 0.06 62 1015.5
20260508013030 47 137 0.0 1.0 0.00 0.18 0.06 62 1015.5
20260508012515 46 0 0.0 2.0 0.00 0.18 0.06 63 1015.5
20260508012009 46 271 1.0 2.0 0.00 0.18 0.06 62 1015.5
20260508011539 46 65 0.0 2.0 0.00 0.18 0.06 63 1015.6
20260508011009 46 67 1.0 2.0 0.00 0.18 0.06 63 1015.6
20260508010507 46 0 0.0 1.0 0.00 0.18 0.06 63 1015.7
20260508010033 46 0 0.0 1.0 0.00 0.18 0.06 64 1015.6
20260508005520 46 159 0.0 1.0 0.00 0.18 0.06 63 1015.7
20260508005009 46 159 0.0 1.0 0.00 0.18 0.06 63 1015.8
20260508004529 46 0 0.0 1.0 0.00 0.18 0.06 65 1015.8
20260508004011 46 0 0.0 2.0 0.00 0.18 0.06 64 1015.9
20260508003509 45 0 0.0 2.0 0.00 0.18 0.06 65 1016.0
20260508003036 46 136 1.0 2.0 0.00 0.18 0.06 63 1016.1
20260508002511 45 0 0.0 2.0 0.00 0.18 0.06 63 1016.0
20260508002010 45 0 0.0 6.0 0.00 0.18 0.06 63 1016.1
20260508001533 45 0 0.0 6.0 0.00 0.18 0.06 64 1016.2
20260508001010 45 171 2.0 6.0 0.00 0.18 0.06 64 1016.3
20260508000513 45 166 1.0 3.0 0.00 0.18 0.06 64 1016.3
20260508000027 45 120 0.0 2.0 0.00 0.18 0.06 66 1016.3
20260507235510 45 134 0.0 2.0 0.00 0.18 0.06 67 1016.4
20260507235010 45 45 0.0 2.0 0.00 0.18 0.06 68 1016.4
20260507234528 44 80 0.0 1.0 0.00 0.18 0.06 69 1016.4
20260507234007 44 30 0.0 1.0 0.00 0.18 0.06 70 1016.3
20260507233509 44 31 0.0 2.0 0.00 0.18 0.06 72 1016.4
20260507233028 44 0 0.0 2.0 0.00 0.18 0.06 72 1016.5
20260507232513 43 287 0.0 1.0 0.00 0.18 0.06 72 1016.5
20260507232012 43 343 0.0 1.0 0.00 0.18 0.06 70 1016.6
20260507231530 43 0 0.0 1.0 0.00 0.18 0.06 71 1016.6
20260507231010 43 0 0.0 1.0 0.00 0.18 0.06 72 1016.6
20260507230510 43 285 0.0 1.0 0.00 0.18 0.06 73 1016.7
20260507230028 43 0 0.0 1.0 0.00 0.18 0.06 70 1016.8
20260507225513 43 278 0.0 2.0 0.00 0.21 0.06 72 1016.9
20260507225011 43 0 0.0 3.0 0.00 0.21 0.06 71 1017.0
20260507224530 43 275 1.0 3.0 0.00 0.21 0.06 72 1017.1
20260507224010 43 221 1.0 3.0 0.00 0.21 0.06 71 1017.1
20260507223509 43 271 1.0 4.0 0.00 0.21 0.06 72 1017.2
20260507223030 44 274 2.0 4.0 0.00 0.21 0.06 69 1017.1
20260507222513 44 156 0.0 2.0 0.00 0.21 0.06 67 1017.1
20260507222009 44 131 0.0 3.0 0.00 0.21 0.06 68 1017.1
20260507221527 44 143 1.0 3.0 0.00 0.21 0.06 68 1017.1
20260507221010 44 0 1.0 3.0 0.00 0.21 0.06 68 1017.0
20260507220510 44 245 1.0 4.0 0.00 0.21 0.06 66 1017.0
20260507220028 44 134 0.0 4.0 0.00 0.21 0.06 68 1017.1
20260507215512 44 205 1.0 3.0 0.00 0.21 0.06 72 1017.1
20260507215010 43 225 1.0 3.0 0.00 0.21 0.06 69 1017.1
20260507214530 43 76 2.0 4.0 0.00 0.21 0.06 67 1017.2
20260507214008 44 128 0.0 5.0 0.00 0.21 0.06 67 1017.2
20260507213508 44 166 1.0 5.0 0.00 0.21 0.06 65 1017.2
20260507213031 45 139 1.0 3.0 0.00 0.21 0.06 65 1017.2
20260507212509 45 61 0.0 1.0 0.00 0.21 0.06 66 1017.2
20260507212013 45 62 0.0 1.0 0.00 0.21 0.06 65 1017.1
20260507211528 45 41 0.0 1.0 0.00 0.21 0.06 68 1017.1
20260507211010 45 40 0.0 2.0 0.00 0.21 0.06 66 1017.1
20260507210508 44 15 0.0 2.0 0.00 0.21 0.06 67 1017.1
20260507210028 44 57 0.0 2.0 0.00 0.21 0.06 68 1017.1
20260507205509 45 0 0.0 2.0 0.00 0.21 0.06 70 1017.2
20260507205012 45 78 0.0 2.0 0.00 0.21 0.06 69 1017.2
20260507204530 44 112 1.0 3.0 0.00 0.21 0.06 68 1017.2
20260507204009 45 46 1.0 3.0 0.00 0.21 0.06 69 1017.3
20260507203511 44 0 0.0 3.0 0.00 0.21 0.06 71 1017.3
20260507203030 44 98 1.0 3.0 0.00 0.21 0.06 72 1017.4
20260507202510 44 47 1.0 2.0 0.00 0.21 0.06 73 1017.4
20260507202010 43 104 1.0 2.0 0.00 0.21 0.06 72 1017.4
20260507201529 43 88 0.0 1.0 0.00 0.21 0.06 76 1017.4
20260507201014 43 121 0.0 1.0 0.00 0.21 0.06 75 1017.3
20260507200509 42 124 0.0 1.0 0.00 0.21 0.06 73 1017.4
20260507200036 42 136 0.0 2.0 0.00 0.21 0.06 73 1017.5
20260507195508 42 0 0.0 2.0 0.00 0.21 0.06 75 1017.6
20260507195008 42 340 0.0 2.0 0.00 0.21 0.06 76 1017.5
20260507194528 42 44 0.0 2.0 0.00 0.21 0.06 75 1017.5
20260507194012 43 160 0.0 2.0 0.00 0.21 0.06 75 1017.7
20260507193509 42 157 0.0 2.0 0.00 0.21 0.06 76 1017.6
20260507193032 42 164 0.0 2.0 0.00 0.21 0.06 77 1017.6
20260507192510 42 164 0.0 2.0 0.00 0.21 0.06 75 1017.6
20260507192008 42 165 1.0 2.0 0.00 0.21 0.06 76 1017.6
20260507191530 42 117 0.0 3.0 0.00 0.21 0.06 77 1017.7
20260507191010 43 117 0.0 4.0 0.00 0.21 0.06 76 1017.7
20260507190509 42 134 1.0 4.0 0.00 0.21 0.06 77 1017.6
20260507190037 42 131 1.0 4.0 0.00 0.21 0.06 81 1017.7
20260507185508 42 0 0.0 2.0 0.00 0.22 0.06 80 1017.7
20260507185010 41 0 0.0 2.0 0.00 0.22 0.06 81 1017.7
20260507184537 41 123 0.0 2.0 0.00 0.22 0.06 80 1017.7
20260507184009 41 0 0.0 1.0 0.00 0.22 0.06 83 1017.7
20260507183509 41 0 0.0 1.0 0.00 0.22 0.06 85 1017.6
20260507183029 41 0 0.0 1.0 0.00 0.22 0.06 85 1017.5
20260507182510 40 0 0.0 1.0 0.00 0.22 0.06 85 1017.7
20260507182011 40 126 0.0 1.0 0.00 0.22 0.06 88 1017.6
20260507181528 40 0 0.0 1.0 0.00 0.22 0.06 87 1017.7
20260507181010 40 0 0.0 1.0 0.00 0.22 0.06 90 1017.7
20260507180510 40 0 0.0 1.0 0.00 0.22 0.06 92 1017.6
20260507180032 40 0 0.0 1.0 0.00 0.22 0.06 93 1017.7
20260507175511 39 0 0.0 1.0 0.00 0.22 0.06 94 1017.7
20260507175012 39 0 0.0 1.0 0.00 0.22 0.06 94 1017.6
20260507174536 39 0 0.0 1.0 0.00 0.22 0.06 95 1017.7
20260507174010 39 0 0.0 1.0 0.00 0.22 0.06 95 1017.6
20260507173511 38 0 0.0 1.0 0.00 0.22 0.06 95 1017.7
20260507173033 38 0 0.0 1.0 0.00 0.22 0.06 95 1017.7
20260507172509 38 0 0.0 1.0 0.00 0.22 0.06 95 1017.8
20260507172010 38 0 0.0 1.0 0.00 0.22 0.06 95 1017.7
20260507171532 38 103 0.0 1.0 0.00 0.22 0.06 95 1017.7
20260507171011 38 0 0.0 1.0 0.00 0.22 0.06 96 1017.7
20260507170513 37 0 0.0 1.0 0.00 0.22 0.06 96 1017.8
20260507170028 37 119 0.0 1.0 0.00 0.22 0.06 96 1017.7
20260507165509 37 0 0.0 1.0 0.00 0.22 0.06 96 1017.8
20260507165008 37 128 0.0 0.0 0.00 0.22 0.06 96 1017.9
20260507164530 37 0 0.0 0.0 0.00 0.22 0.06 96 1017.8
20260507164014 37 0 0.0 0.0 0.00 0.22 0.06 96 1017.8
20260507163510 36 0 0.0 1.0 0.00 0.22 0.06 96 1017.9
20260507163030 36 0 0.0 1.0 0.00 0.22 0.06 96 1017.9
20260507162513 36 0 0.0 1.0 0.00 0.22 0.06 96 1017.9
20260507162009 36 0 0.0 1.0 0.00 0.22 0.06 96 1017.9
20260507161527 36 0 0.0 1.0 0.00 0.22 0.06 96 1017.9
20260507161010 36 0 0.0 1.0 0.00 0.22 0.06 96 1017.9
20260507160508 36 0 0.0 1.0 0.00 0.22 0.06 96 1017.8
20260507160028 36 128 0.0 1.0 0.00 0.22 0.06 96 1017.9
20260507155510 36 0 0.0 1.0 0.00 0.22 0.06 95 1018.0
20260507155010 36 39 0.0 1.0 0.00 0.22 0.06 95 1017.9
20260507154533 36 0 0.0 1.0 0.00 0.22 0.06 95 1018.0
20260507154010 36 0 0.0 1.0 0.00 0.22 0.06 96 1018.0